Regional Weather Roundup
Issued by NWS Sioux Falls, SD

Home | Current Version | Previous Version | Graphics & Text | Print | Product List | Glossary Off
Versions: 1 2 3 4 5 6 7 8 9 10 11 12 13 14 15 16 17 18 19 20 21 22 23 24 25 26 27 28 29 30 31 32 33 34 35 36 37 38 39 40 41 42 43 44 45 46 47 48 49 50

000
ASUS43 KFSD 301202
RWRFSD

WEATHER ROUNDUP FOR SE SOUTH DAKOTA/SW MINNESOTA/NW IOWA
NATIONAL WEATHER SERVICE SIOUX FALLS SD
700 AM CDT TUE SEP 30 2014

NOTE: "FAIR" INDICATES FEW OR NO CLOUDS BELOW 12,000 FEET WITH NO
SIGNIFICANT WEATHER AND OR OBSTRUCTIONS TO VISIBILITY.


SDZ038>040-050-052>070-301300-
SOUTHEAST SOUTH DAKOTA

CITY           SKY/WX    TMP DP  RH WIND       PRES   REMARKS
CHAMBERLAIN    CLOUDY    58  57  95 SE21G28   29.68F
6HR MIN TEMP:  58; 6HR MAX TEMP:  59; 6HR PCP:  0.03;

HURON          CLOUDY    54  50  86 E18G24    29.77F
6HR MIN TEMP:  54; 6HR MAX TEMP:  55;

MADISON        FAIR      48  48 100 SE13G18   29.88S
MITCHELL       CLOUDY    55  52  89 SE17G25   29.79F
6HR MIN TEMP:  54; 6HR MAX TEMP:  58;

SIOUX FALLS    MOCLDY    52  49  89 E15       29.88F
6HR MIN TEMP:  52; 6HR MAX TEMP:  54;

WINNER         PTSUNNY   62  58  86 SE18      29.63F
YANKTON        CLOUDY    57  54  88 E14G22    29.82F
$$

MNZ071-072-080-081-089-090-097-098-301300-
SOUTHWEST MINNESOTA

CITY           SKY/WX    TMP DP  RH WIND       PRES   REMARKS
FAIRMONT       CLOUDY    46  43  87 E12       29.99F
JACKSON        CLOUDY    46  45  93 E10       29.98S
LUVERNE        PTCLDY    52  46  82 SE7       29.92S
MARSHALL       CLOUDY    46  39  76 SE16      29.95F
6HR MIN TEMP:  46; 6HR MAX TEMP:  48;

MONTEVIDEO     CLOUDY    43  43 100 SE15      30.00S
PIPESTONE      MOCLDY    50  46  87 SE15G23   29.90S
REDWOOD FALLS  CLOUDY    44  41  89 E8G20     30.00F
TRACY          CLOUDY    47  45  93 SE12G17   29.97F
WINDOM         CLOUDY    46  45  93 E9        29.98S
WORTHINGTON    CLOUDY    48  46  93 E12       29.96F
$$

IAZ001>003-012>014-020>022-031-032-NEZ013-014-SDZ071-301300-
NORTHWEST IOWA

CITY           SKY/WX    TMP DP  RH WIND       PRES   REMARKS
CHEROKEE       CLOUDY    53  53  99 SE5       29.94S
DENISON        CLOUDY    57  57 100 E9        29.91S FOG
ESTHERVILLE    CLOUDY    48  47  96 E10       29.98S
LE MARS          N/A     55  54  94 VRB7G13   29.90F
ORANGE CITY    CLOUDY    54  50  87 E7        29.91S
SHELDON        CLOUDY    52  50  93 E9        29.92S
SIOUX CITY     CLOUDY    58  55  90 E12       29.87F
6HR MIN TEMP:  57; 6HR MAX TEMP:  62;

SPENCER        CLOUDY    51  48  89 E13       29.95F
6HR MIN TEMP:  51; 6HR MAX TEMP:  53;

STORM LAKE     CLOUDY    52  52 100 SE10      29.96R
$$

ABBREVIATIONS USED IN REMARKS
   TC - TEMPERATURE IN CELSIUS
  WCI - WIND CHILL INDEX
   HX - HEAT INDEX
  VSB - VISIBILITY




USA.gov is the U.S. government's official web portal to all federal, state and local government web resources and services.